Location: Andershausen
(51.8462°N, 9.8595°E)
Time: 09:20:15
(UTC+00:00)

TIMED - Pass Details

Date: 18 November 2025
Orbit: 582 x 584 km, 74.1° (Epoch: 11 December)

Event Time Altitude Azimuth Distance (km) Brightness Sun altitude
Rises 16:29:05 0° 197° (SSW) 2,798 8.5 -9.7°
Reaches altitude 10° 16:31:18 10° 195° (SSW) 1,903 7.5 -10.0°
Maximum altitude 16:35:31 70° 111° (ESE) 626 4.4 -10.6°
Drops below altitude 10° 16:39:46 10° 29° (NNE) 1,919 6.7 -11.2°
Enters shadow 16:40:20 - 28° (NNE) 2,147 6.9 -11.3°
